• In Kazakhstan
  • List of Countries
  • For 7 days
  • Water Temperature
  • Weather Map
  • News
  • Weather Widgets
  • user-avatar
    Login

    Hourly Weather Minsk

    Today, 4 June, Thursday

    Time Temperature Precipitation Wind Pressure Humidity
    00:00 +9°C° 0.1 mm 3 mps 733 mmHg 94%
    01:00 +8°C° 0.1 mm 3 mps 733 mmHg 94%
    02:00 +8°C° 0.1 mm 3 mps 733 mmHg 95%
    03:00 +8°C° 0 mm 2 mps 732 mmHg 95%
    04:00 +8°C° 0 mm 2 mps 732 mmHg 96%
    05:00 +7°C° 0 mm 2 mps 732 mmHg 97%
    06:00 +9°C° 0 mm 2 mps 732 mmHg 93%
    07:00 +10°C° 0 mm 2 mps 732 mmHg 90%
    08:00 +12°C° 0 mm 2 mps 732 mmHg 86%
    09:00 +12°C° 0.1 mm 3 mps 732 mmHg 81%
    10:00 +13°C° 0.1 mm 3 mps 731 mmHg 76%
    11:00 +14°C° 0.1 mm 4 mps 731 mmHg 71%
    12:00 +15°C° 0.1 mm 4 mps 731 mmHg 69%
    13:00 +15°C° 0.1 mm 4 mps 731 mmHg 66%
    14:00 +17°C° 0.1 mm 4 mps 731 mmHg 64%
    15:00 +17°C° 0.2 mm 3 mps 731 mmHg 67%
    16:00 +16°C° 0.2 mm 3 mps 730 mmHg 69%
    17:00 +16°C° 0.2 mm 3 mps 730 mmHg 72%
    18:00 +14°C° 0.2 mm 3 mps 730 mmHg 76%
    19:00 +14°C° 0.2 mm 2 mps 730 mmHg 81%
    20:00 +12°C° 0.2 mm 2 mps 730 mmHg 86%
    21:00 +10°C° 0 mm 2 mps 730 mmHg 87%
    22:00 +10°C° 0 mm 2 mps 731 mmHg 89%
    23:00 +9°C° 0 mm 2 mps 731 mmHg 91%

    Tomorrow, 5 June, Friday

    Time Temperature Precipitation Wind Pressure Humidity
    00:00 +8°C° 0 mm 2 mps 731 mmHg 92%
    01:00 +8°C° 0 mm 2 mps 731 mmHg 92%
    02:00 +7°C° 0 mm 2 mps 731 mmHg 93%
    03:00 +7°C° 0 mm 2 mps 731 mmHg 93%
    04:00 +7°C° 0 mm 2 mps 731 mmHg 94%
    05:00 +8°C° 0 mm 2 mps 731 mmHg 95%
    06:00 +9°C° 0 mm 2 mps 731 mmHg 90%
    07:00 +12°C° 0 mm 2 mps 731 mmHg 86%
    08:00 +14°C° 0 mm 2 mps 732 mmHg 82%
    09:00 +16°C° 0 mm 3 mps 732 mmHg 77%
    10:00 +17°C° 0 mm 3 mps 732 mmHg 72%
    11:00 +19°C° 0 mm 4 mps 732 mmHg 67%
    12:00 +19°C° 0 mm 4 mps 732 mmHg 65%
    13:00 +20°C° 0 mm 4 mps 732 mmHg 63%
    14:00 +21°C° 0 mm 4 mps 732 mmHg 61%
    15:00 +21°C° 0.4 mm 5 mps 732 mmHg 68%
    16:00 +20°C° 0.4 mm 5 mps 731 mmHg 75%
    17:00 +20°C° 0.4 mm 5 mps 731 mmHg 82%
    18:00 +19°C° 0.5 mm 5 mps 731 mmHg 86%
    19:00 +17°C° 0.5 mm 5 mps 731 mmHg 89%
    20:00 +16°C° 0.5 mm 5 mps 731 mmHg 92%
    21:00 +16°C° 0.7 mm 5 mps 732 mmHg 93%
    22:00 +16°C° 0.7 mm 5 mps 732 mmHg 94%
    23:00 +15°C° 0.7 mm 5 mps 732 mmHg 95%

    Day after tomorrow, 6 June, Saturday

    Time Temperature Precipitation Wind Pressure Humidity
    00:00 +15°C° 0.1 mm 4 mps 732 mmHg 96%
    01:00 +15°C° 0.1 mm 4 mps 732 mmHg 96%
    02:00 +14°C° 0.1 mm 4 mps 732 mmHg 97%
    03:00 +14°C° 0 mm 5 mps 732 mmHg 96%
    04:00 +14°C° 0 mm 5 mps 732 mmHg 95%
    05:00 +14°C° 0 mm 5 mps 732 mmHg 95%
    06:00 +15°C° 0 mm 6 mps 732 mmHg 92%
    07:00 +16°C° 0 mm 6 mps 733 mmHg 90%
    08:00 +16°C° 0 mm 6 mps 733 mmHg 88%
    09:00 +17°C° 0 mm 6 mps 734 mmHg 87%
    10:00 +17°C° 0 mm 6 mps 735 mmHg 85%
    11:00 +19°C° 0 mm 6 mps 735 mmHg 83%
    12:00 +20°C° 0 mm 6 mps 736 mmHg 77%
    13:00 +21°C° 0 mm 6 mps 736 mmHg 71%
    14:00 +22°C° 0 mm 6 mps 736 mmHg 64%
    15:00 +22°C° 0 mm 5 mps 736 mmHg 66%
    16:00 +22°C° 0 mm 5 mps 737 mmHg 67%
    17:00 +21°C° 0 mm 5 mps 737 mmHg 68%
    18:00 +20°C° 0 mm 4 mps 737 mmHg 73%
    19:00 +19°C° 0 mm 3 mps 738 mmHg 78%
    20:00 +17°C° 0 mm 2 mps 738 mmHg 83%
    21:00 +16°C° 0 mm 3 mps 738 mmHg 85%
    22:00 +16°C° 0 mm 3 mps 739 mmHg 88%
    23:00 +14°C° 0 mm 3 mps 739 mmHg 90%

    7 June, Sunday

    Time Temperature Precipitation Wind Pressure Humidity
    00:00 +14°C° 0 mm 2 mps 740 mmHg 91%
    01:00 +14°C° 0 mm 2 mps 740 mmHg 91%
    02:00 +14°C° 0 mm 2 mps 740 mmHg 91%
    03:00 +14°C° 0 mm 2 mps 740 mmHg 90%
    04:00 +14°C° 0 mm 1 mps 741 mmHg 89%
    05:00 +14°C° 0 mm 1 mps 741 mmHg 88%
    06:00 +16°C° 0 mm 2 mps 741 mmHg 84%
    07:00 +17°C° 0 mm 2 mps 741 mmHg 81%
    08:00 +19°C° 0 mm 2 mps 742 mmHg 77%
    09:00 +20°C° 0 mm 3 mps 742 mmHg 76%
    10:00 +21°C° 0 mm 3 mps 742 mmHg 74%
    11:00 +21°C° 0 mm 4 mps 742 mmHg 72%
    12:00 +21°C° 0.1 mm 4 mps 742 mmHg 75%
    13:00 +21°C° 0.1 mm 4 mps 741 mmHg 77%
    14:00 +21°C° 0.1 mm 3 mps 741 mmHg 80%
    15:00 +21°C° 1.4 mm 4 mps 740 mmHg 82%
    16:00 +21°C° 1.4 mm 4 mps 740 mmHg 84%
    17:00 +21°C° 1.4 mm 4 mps 739 mmHg 86%
    18:00 +21°C° 0.8 mm 4 mps 739 mmHg 86%
    19:00 +20°C° 0.8 mm 4 mps 739 mmHg 87%
    20:00 +20°C° 0.8 mm 3 mps 739 mmHg 87%
    21:00 +19°C° 0.3 mm 3 mps 739 mmHg 88%
    22:00 +19°C° 0.3 mm 4 mps 739 mmHg 89%
    23:00 +18°C° 0.3 mm 4 mps 740 mmHg 90%

    8 June, Monday

    Time Temperature Precipitation Wind Pressure Humidity
    00:00 +17°C° 0 mm 4 mps 740 mmHg 91%
    01:00 +17°C° 0 mm 3 mps 740 mmHg 92%
    02:00 +17°C° 0 mm 3 mps 740 mmHg 93%
    03:00 +17°C° 0 mm 3 mps 740 mmHg 93%
    04:00 +17°C° 0 mm 3 mps 740 mmHg 93%
    05:00 +16°C° 0 mm 2 mps 740 mmHg 93%
    06:00 +18°C° 0.1 mm 2 mps 740 mmHg 89%
    07:00 +20°C° 0.1 mm 3 mps 740 mmHg 86%
    08:00 +21°C° 0.1 mm 3 mps 740 mmHg 83%
    09:00 +22°C° 0.8 mm 3 mps 740 mmHg 78%
    10:00 +23°C° 0.8 mm 4 mps 740 mmHg 73%
    11:00 +25°C° 0.8 mm 4 mps 740 mmHg 68%
    12:00 +25°C° 0.9 mm 4 mps 740 mmHg 69%
    13:00 +25°C° 0.9 mm 4 mps 739 mmHg 71%
    14:00 +25°C° 0.9 mm 5 mps 739 mmHg 72%
    15:00 +25°C° 1.2 mm 4 mps 739 mmHg 75%
    16:00 +25°C° 1.2 mm 4 mps 739 mmHg 77%
    17:00 +25°C° 1.2 mm 4 mps 738 mmHg 79%
    18:00 +23°C° 0.9 mm 4 mps 738 mmHg 82%
    19:00 +22°C° 0.9 mm 4 mps 738 mmHg 85%
    20:00 +20°C° 0.9 mm 3 mps 738 mmHg 88%
    21:00 +20°C° 0.1 mm 3 mps 738 mmHg 90%
    22:00 +19°C° 0.1 mm 3 mps 738 mmHg 92%
    23:00 +18°C° 0.1 mm 3 mps 738 mmHg 94%

    9 June, Tuesday

    Time Temperature Precipitation Wind Pressure Humidity
    00:00 +18°C° 0 mm 3 mps 739 mmHg 95%
    01:00 +18°C° 0 mm 3 mps 739 mmHg 95%
    02:00 +17°C° 0 mm 3 mps 739 mmHg 96%
    03:00 +17°C° 0 mm 3 mps 739 mmHg 96%
    04:00 +17°C° 0 mm 3 mps 739 mmHg 97%
    05:00 +17°C° 0 mm 3 mps 739 mmHg 97%
    06:00 +19°C° 0 mm 3 mps 739 mmHg 94%
    07:00 +20°C° 0 mm 4 mps 740 mmHg 90%
    08:00 +21°C° 0 mm 4 mps 740 mmHg 87%
    09:00 +23°C° 0.1 mm 4 mps 740 mmHg 82%
    10:00 +25°C° 0.1 mm 5 mps 740 mmHg 76%
    11:00 +26°C° 0.1 mm 5 mps 740 mmHg 71%
    12:00 +27°C° 0.6 mm 5 mps 740 mmHg 71%
    13:00 +27°C° 0.6 mm 5 mps 740 mmHg 70%
    14:00 +27°C° 0.6 mm 4 mps 740 mmHg 70%
    15:00 +27°C° 0.8 mm 4 mps 740 mmHg 72%
    16:00 +26°C° 0.8 mm 4 mps 740 mmHg 75%
    17:00 +26°C° 0.8 mm 3 mps 740 mmHg 78%
    18:00 +25°C° 0.2 mm 3 mps 740 mmHg 80%
    19:00 +24°C° 0.2 mm 3 mps 740 mmHg 83%
    20:00 +21°C° 0.2 mm 2 mps 740 mmHg 86%
    21:00 +21°C° 0.1 mm 2 mps 740 mmHg 87%
    22:00 +20°C° 0.1 mm 2 mps 740 mmHg 88%
    23:00 +20°C° 0.1 mm 2 mps 740 mmHg 89%
    Show more